Date Time,Air Temp,Sky Temp,Clarity,Light Level,Rain Sensor,Readings
2014-07-27 00:00:06,28.1,4.6,23.5,0.0,2.3,112
2014-07-27 00:05:06,29.1,4.2,24.9,0.0,2.3,112
2014-07-27 00:10:06,29.4,4.0,25.5,0.0,2.3,112
2014-07-27 00:15:06,29.8,3.8,26.0,0.0,2.3,111
2014-07-27 00:20:06,29.6,3.6,26.0,0.0,2.3,111
2014-07-27 00:25:06,29.5,3.7,25.7,0.0,2.3,112
2014-07-27 00:30:06,29.4,3.9,25.5,0.0,2.3,112
2014-07-27 00:35:06,29.4,4.0,25.4,0.0,2.3,111
2014-07-27 00:40:06,29.3,3.9,25.4,0.0,2.3,111
2014-07-27 00:45:06,29.2,4.2,25.1,0.0,2.3,112
2014-07-27 00:50:06,29.2,4.4,24.8,0.0,2.3,112
2014-07-27 00:55:06,29.2,5.0,24.2,0.0,2.3,111
2014-07-27 01:00:06,29.2,6.0,23.2,0.0,2.3,112
2014-07-27 01:05:06,29.2,7.8,21.4,0.0,2.3,111
2014-07-27 01:10:06,28.4,9.4,19.0,0.0,2.3,112
2014-07-27 01:15:06,25.8,10.8,15.0,0.0,2.3,112
2014-07-27 01:20:06,24.9,11.5,13.4,0.0,2.3,111
2014-07-27 01:25:06,24.7,11.6,13.0,0.0,2.3,111
2014-07-27 01:30:06,24.5,11.4,13.1,0.0,2.3,111
2014-07-27 01:35:06,24.5,10.9,13.6,0.0,2.3,111
2014-07-27 01:40:06,24.4,10.4,13.9,0.0,2.3,112
2014-07-27 01:45:06,24.4,10.1,14.3,0.0,2.3,112
2014-07-27 01:50:06,24.3,9.6,14.7,0.0,2.3,111
2014-07-27 01:55:06,24.3,10.1,14.2,0.0,2.3,112
2014-07-27 02:00:06,24.2,9.9,14.4,0.0,2.3,112
2014-07-27 02:05:06,24.2,9.5,14.7,0.0,2.3,112
2014-07-27 02:10:06,24.1,9.2,14.9,0.0,2.3,111
2014-07-27 02:15:06,24.1,8.9,15.2,0.0,2.3,112
2014-07-27 02:20:06,24.1,7.1,17.0,0.0,2.3,111
2014-07-27 02:25:06,24.0,5.7,18.3,0.0,2.3,112
2014-07-27 02:30:06,24.0,5.6,18.4,0.0,2.5,112
2014-07-27 02:35:06,23.9,5.3,18.5,0.0,2.6,112
2014-07-27 02:40:06,23.8,5.6,18.2,0.0,2.5,111
2014-07-27 02:45:06,23.6,6.0,17.6,0.0,2.3,112
2014-07-27 02:50:06,23.5,6.1,17.3,0.0,2.3,112
2014-07-27 02:55:06,23.4,5.8,17.5,0.0,2.3,112
2014-07-27 03:00:06,23.3,5.5,17.8,0.0,2.3,112
2014-07-27 03:05:06,23.3,5.9,17.4,0.0,2.3,111
2014-07-27 03:10:06,23.2,6.1,17.2,0.0,2.3,112
2014-07-27 03:15:06,23.2,5.8,17.4,0.0,2.3,111
2014-07-27 03:20:06,23.1,5.0,18.1,0.0,2.2,112
2014-07-27 03:25:06,22.6,4.5,18.1,0.0,2.2,112
2014-07-27 03:30:06,22.9,4.6,18.3,0.0,2.2,112
2014-07-27 03:35:06,22.8,4.2,18.6,0.0,2.3,111
2014-07-27 03:40:06,22.8,3.7,19.1,0.0,2.3,111
2014-07-27 03:45:06,22.8,3.5,19.4,0.0,2.3,112
2014-07-27 03:50:06,22.9,3.2,19.7,0.0,2.3,111
2014-07-27 03:55:06,25.2,3.1,22.1,0.0,2.3,111
2014-07-27 04:00:06,26.8,2.7,24.0,0.0,2.4,111
2014-07-27 04:05:06,27.2,2.4,24.8,0.1,2.3,111
2014-07-27 04:10:06,27.4,2.6,24.8,0.1,2.3,112
2014-07-27 04:15:06,27.5,2.5,25.0,0.2,2.3,111
2014-07-27 04:20:06,27.5,2.5,25.0,0.3,2.3,111
2014-07-27 04:25:06,27.5,2.3,25.1,0.5,2.3,111
2014-07-27 04:30:06,27.4,2.4,25.1,0.9,2.3,111
2014-07-27 04:35:06,26.9,2.8,24.2,1.6,2.3,112
2014-07-27 04:40:06,27.4,3.0,24.4,2.9,2.3,111
2014-07-27 04:45:06,26.9,3.3,23.6,4.9,2.3,111
2014-07-27 04:50:06,27.5,3.5,24.0,7.9,2.3,111
2014-07-27 04:55:06,27.5,3.2,24.3,11.8,2.3,112
2014-07-27 05:00:06,27.5,3.8,23.7,16.5,2.3,111
2014-07-27 05:05:06,27.6,4.1,23.5,20.9,2.3,112
2014-07-27 05:10:06,27.8,4.4,23.3,24.3,2.3,111
2014-07-27 05:15:06,27.9,5.5,22.3,26.7,2.3,112
2014-07-27 05:20:06,27.4,7.8,19.5,28.2,2.3,111
2014-07-27 05:25:06,24.6,10.3,14.3,29.3,2.4,112
2014-07-27 05:30:06,23.7,10.3,13.5,30.2,2.4,112
2014-07-27 05:35:06,23.3,10.0,13.3,30.9,2.3,111
2014-07-27 05:40:06,23.2,10.3,12.9,31.3,2.2,112
2014-07-27 05:45:06,23.3,11.4,11.9,31.5,2.2,111
2014-07-27 05:50:06,23.3,11.4,11.9,31.7,2.2,111
2014-07-27 05:55:06,23.3,10.8,12.5,31.8,2.2,112
2014-07-27 06:00:06,23.3,9.8,13.4,31.9,2.2,112
2014-07-27 06:05:09,23.3,9.5,13.8,32.1,2.2,75
2014-07-27 06:10:09,23.4,9.6,13.7,32.1,2.2,112
2014-07-27 06:15:09,23.4,9.5,13.9,32.1,2.2,111
2014-07-27 06:20:09,23.4,9.2,14.2,32.0,2.3,112
2014-07-27 06:25:09,23.3,7.7,15.7,32.0,2.2,111
2014-07-27 06:30:09,22.8,4.5,18.2,32.0,2.2,112
2014-07-27 06:35:09,23.0,3.9,19.1,32.0,2.3,111
2014-07-27 06:40:09,22.9,3.7,19.2,32.0,2.3,112
2014-07-27 06:45:09,22.8,4.0,18.8,32.1,2.3,112
2014-07-27 06:50:09,22.7,4.5,18.2,32.2,2.3,111
2014-07-27 06:55:09,22.9,5.2,17.7,32.3,2.3,112
2014-07-27 07:00:09,23.1,4.6,18.5,32.3,2.2,112
2014-07-27 07:05:09,23.2,4.4,18.8,32.3,2.2,112
2014-07-27 07:10:09,23.3,4.8,18.5,32.3,2.2,111
2014-07-27 07:15:09,23.4,5.3,18.1,32.4,2.2,112
2014-07-27 07:20:09,23.7,5.5,18.1,32.4,2.3,112
2014-07-27 07:25:09,24.0,5.9,18.1,32.4,2.4,111
2014-07-27 07:30:09,24.4,5.8,18.5,32.4,2.4,112
2014-07-27 07:35:09,24.6,6.4,18.2,32.4,2.3,111
2014-07-27 07:40:09,24.7,8.3,16.4,32.5,2.3,112
2014-07-27 07:45:09,25.0,13.7,11.3,32.5,2.3,111
2014-07-27 07:50:09,25.3,14.9,10.4,32.4,2.3,112
2014-07-27 07:55:09,25.3,14.6,10.7,32.4,2.3,111
2014-07-27 08:00:09,25.2,14.9,10.3,32.5,2.3,112
2014-07-27 08:05:09,25.3,14.8,10.5,32.4,2.3,111
2014-07-27 08:10:09,25.1,14.0,11.1,32.4,2.3,112
2014-07-27 08:15:09,25.0,12.1,12.9,32.5,2.3,111
2014-07-27 08:20:09,24.9,11.8,13.1,32.5,2.3,111
2014-07-27 08:25:09,24.9,12.3,12.6,32.5,2.3,112
2014-07-27 08:30:09,25.0,12.8,12.3,32.5,2.3,112
2014-07-27 08:35:09,25.2,14.1,11.1,32.5,2.3,111
2014-07-27 08:40:09,25.4,13.3,12.2,32.5,2.3,112
2014-07-27 08:45:09,25.5,11.7,13.8,32.5,2.3,111
2014-07-27 08:50:09,25.7,9.5,16.2,32.5,2.3,111
2014-07-27 08:55:09,25.8,7.1,18.7,32.5,2.3,112
2014-07-27 09:00:09,25.8,7.0,18.8,32.5,2.3,111
2014-07-27 09:05:09,25.8,8.0,17.7,32.5,2.3,112
2014-07-27 09:10:09,26.2,11.9,14.3,32.5,2.3,111
2014-07-27 09:15:09,27.0,15.0,12.0,32.5,2.3,111
2014-07-27 09:20:09,27.2,16.0,11.2,32.5,2.3,112
2014-07-27 09:25:09,26.8,15.2,11.5,32.5,2.3,111
2014-07-27 09:30:09,26.3,15.1,11.2,32.5,2.3,112
2014-07-27 09:35:09,26.0,15.6,10.4,32.5,2.3,111
2014-07-27 09:40:09,26.0,16.0,10.0,32.4,2.3,112
2014-07-27 09:45:09,26.0,15.4,10.7,32.5,2.3,111
2014-07-27 09:50:09,26.1,15.6,10.5,32.5,2.3,112
2014-07-27 09:55:09,26.3,15.6,10.7,32.5,2.3,111
2014-07-27 10:00:09,26.3,15.6,10.7,32.5,2.3,111
2014-07-27 10:05:09,26.2,15.3,10.9,32.5,2.3,112
2014-07-27 10:10:09,26.1,14.6,11.5,32.5,2.3,111
2014-07-27 10:15:09,26.0,14.5,11.5,32.5,2.3,111
2014-07-27 10:20:09,26.0,14.3,11.7,32.5,2.3,111
2014-07-27 10:25:09,26.1,11.9,14.1,32.5,2.3,111
2014-07-27 10:30:09,26.1,11.1,15.1,32.5,2.3,111
2014-07-27 10:35:09,26.4,12.6,13.8,32.6,2.3,111
2014-07-27 10:40:09,26.7,12.0,14.8,32.5,2.3,112
2014-07-27 10:45:09,26.9,11.9,15.0,32.6,2.3,111
2014-07-27 10:50:09,27.3,12.3,15.1,32.6,2.3,112
2014-07-27 10:55:09,27.8,11.7,16.1,32.6,2.3,111
2014-07-27 11:00:09,28.1,12.9,15.2,32.6,2.3,111
2014-07-27 11:05:09,28.5,15.9,12.6,32.6,2.3,111
2014-07-27 11:10:09,28.8,16.2,12.6,32.6,2.3,112
2014-07-27 11:15:09,28.8,15.8,13.0,32.6,2.3,111
2014-07-27 11:20:09,28.7,15.2,13.6,32.6,2.3,111
2014-07-27 11:25:09,28.7,15.9,12.9,32.6,2.3,112
2014-07-27 11:30:09,28.9,16.1,12.8,32.6,2.3,111
2014-07-27 11:35:09,29.0,14.8,14.2,32.6,2.3,112
2014-07-27 11:40:09,29.1,12.7,16.3,32.6,2.3,111
2014-07-27 11:45:09,29.8,13.2,16.6,32.6,1.8,111
2014-07-27 11:50:09,30.6,13.3,17.3,32.6,0.9,112
2014-07-27 11:55:09,30.9,13.3,17.6,32.6,1.0,111
2014-07-27 12:00:09,30.7,12.8,17.9,32.6,0.9,111
2014-07-27 12:05:09,30.6,12.2,18.4,32.6,1.0,111
2014-07-27 12:10:09,31.0,11.6,19.5,32.6,1.0,112
2014-07-27 12:15:09,32.7,12.2,20.5,32.6,1.2,111
2014-07-27 12:20:09,34.3,11.7,22.6,32.6,1.6,112
2014-07-27 12:25:09,35.2,10.6,24.6,32.6,1.8,111
2014-07-27 12:30:09,35.2,10.4,24.8,32.6,1.9,111
2014-07-27 12:35:09,35.4,11.8,23.7,32.6,2.0,112
2014-07-27 12:40:09,36.9,12.3,24.5,32.6,2.4,111
2014-07-27 12:45:09,37.7,10.7,27.0,32.6,2.7,112
2014-07-27 12:50:09,38.5,12.2,26.3,32.6,2.6,111
2014-07-27 12:55:09,39.3,12.1,27.2,32.6,2.4,112
2014-07-27 13:00:09,39.6,14.0,25.6,32.6,2.4,111
2014-07-27 13:05:09,39.5,12.6,26.9,32.6,2.4,112
2014-07-27 13:10:09,39.0,14.7,24.3,32.6,2.4,111
2014-07-27 13:15:09,39.7,14.8,24.9,32.6,2.4,111
2014-07-27 13:20:09,40.3,12.4,27.9,32.6,2.4,111
2014-07-27 13:25:09,40.6,13.1,27.6,32.6,2.4,112
2014-07-27 13:30:09,40.7,12.7,28.1,32.6,2.4,111
2014-07-27 13:35:09,40.8,14.4,26.4,32.6,2.4,111
2014-07-27 13:40:09,40.7,14.7,26.0,32.6,2.4,111
2014-07-27 13:45:09,40.5,15.9,24.7,32.6,2.4,112
2014-07-27 13:50:09,40.5,16.0,24.5,32.6,2.4,111
2014-07-27 13:55:09,39.7,15.1,24.6,32.6,2.4,111
2014-07-27 14:00:09,38.4,13.7,24.7,32.6,2.4,112
2014-07-27 14:05:09,37.2,14.2,22.9,32.6,2.4,111
2014-07-27 14:10:09,36.7,14.3,22.4,32.6,2.4,112
2014-07-27 14:15:09,36.8,13.5,23.2,32.6,2.5,111
2014-07-27 14:20:09,36.3,12.4,23.9,32.6,2.7,112
2014-07-27 14:25:09,36.0,13.7,22.3,32.6,2.7,111
2014-07-27 14:30:09,36.3,14.8,21.5,32.6,2.8,111
2014-07-27 14:35:09,36.9,14.7,22.2,32.6,2.8,111
2014-07-27 14:40:09,36.1,18.9,17.2,32.6,2.8,112
2014-07-27 14:45:09,36.8,22.1,14.7,32.6,2.4,112
2014-07-27 14:50:09,39.2,18.2,21.0,32.6,2.4,111
2014-07-27 14:55:09,39.9,16.2,23.7,32.6,2.4,112
2014-07-27 15:00:09,38.5,15.0,23.5,32.6,2.4,111
2014-07-27 15:05:09,37.4,14.8,22.6,32.6,2.4,111
2014-07-27 15:10:09,36.9,17.4,19.4,32.6,2.5,112
2014-07-27 15:15:09,37.0,19.7,17.3,32.6,2.4,111
2014-07-27 15:20:09,39.9,13.9,26.0,32.6,2.4,112
2014-07-27 15:25:09,39.6,11.3,28.3,32.6,2.4,111
2014-07-27 15:30:09,37.9,12.1,25.8,32.6,2.3,112
2014-07-27 15:35:09,36.6,12.4,24.2,32.5,2.4,111
2014-07-27 15:40:09,35.8,14.7,21.0,32.6,2.7,112
2014-07-27 15:45:09,33.8,17.0,16.8,32.6,2.6,111
2014-07-27 15:50:09,33.5,15.1,18.4,32.6,2.7,112
2014-07-27 15:55:09,34.1,16.1,18.0,32.6,2.8,111
2014-07-27 16:00:09,34.8,14.6,20.2,32.6,2.7,112
2014-07-27 16:05:09,37.1,14.7,22.4,32.6,2.4,111
2014-07-27 16:10:09,38.9,16.0,22.9,32.6,2.4,112
2014-07-27 16:15:09,40.1,15.0,25.0,32.6,2.4,111
2014-07-27 16:20:09,40.1,12.1,28.0,32.6,2.4,112
2014-07-27 16:25:10,38.7,14.5,24.2,32.6,2.4,111
2014-07-27 16:30:10,37.8,14.0,23.7,32.5,2.3,112
2014-07-27 16:35:10,36.6,12.5,24.1,32.5,2.3,111
2014-07-27 16:40:10,35.8,14.0,21.9,32.5,2.7,112
2014-07-27 16:45:10,35.0,14.3,20.7,32.5,2.6,111
2014-07-27 16:50:10,34.7,13.2,21.6,32.5,2.4,111
2014-07-27 16:55:10,34.9,12.0,22.8,32.6,2.3,112
2014-07-27 17:00:10,35.0,12.5,22.5,32.6,2.3,111
2014-07-27 17:05:10,35.3,12.7,22.6,32.6,2.3,112
2014-07-27 17:10:10,35.4,11.7,23.6,32.6,2.4,111
2014-07-27 17:15:10,35.2,11.7,23.5,32.5,2.3,111
2014-07-27 17:20:10,34.9,12.4,22.5,32.5,2.3,112
2014-07-27 17:25:10,34.4,12.9,21.5,32.5,2.3,111
2014-07-27 17:30:10,34.0,12.2,21.8,32.5,2.2,112
2014-07-27 17:35:10,33.9,11.8,22.1,32.5,2.0,111
2014-07-27 17:40:10,33.8,11.2,22.6,32.5,2.0,112
2014-07-27 17:45:10,33.7,11.3,22.4,32.5,2.0,111
2014-07-27 17:50:10,33.7,11.1,22.7,32.5,2.0,111
2014-07-27 17:55:10,33.7,11.2,22.5,32.5,1.9,111
2014-07-27 18:00:10,33.6,11.0,22.6,32.5,1.9,112
2014-07-27 18:05:10,33.4,10.9,22.4,32.5,1.8,111
2014-07-27 18:10:10,33.2,10.8,22.4,32.5,1.7,111
2014-07-27 18:15:10,33.0,10.5,22.5,32.5,1.8,113
2014-07-27 18:20:10,32.9,10.4,22.5,32.5,1.7,111
2014-07-27 18:25:10,32.7,10.4,22.4,32.5,1.6,112
2014-07-27 18:30:10,32.6,10.4,22.2,32.4,1.5,112
2014-07-27 18:35:10,32.4,10.7,21.6,32.4,1.5,111
2014-07-27 18:40:10,32.3,10.9,21.4,32.4,1.4,111
2014-07-27 18:45:10,32.1,10.8,21.3,32.4,1.3,112
2014-07-27 18:50:10,32.0,11.1,20.9,32.4,1.2,111
2014-07-27 18:55:10,31.9,11.1,20.8,32.4,1.2,112
2014-07-27 19:00:10,31.8,10.9,20.9,32.4,1.2,111
2014-07-27 19:05:10,31.2,11.0,20.3,32.5,1.2,111
2014-07-27 19:10:10,31.8,10.5,21.3,32.4,1.2,112
2014-07-27 19:15:10,31.7,10.2,21.5,32.4,1.3,111
2014-07-27 19:20:10,31.6,9.7,21.9,32.4,1.4,112
2014-07-27 19:25:10,31.5,8.6,22.9,32.4,1.5,111
2014-07-27 19:30:10,31.3,7.0,24.3,32.3,1.4,111
2014-07-27 19:35:10,31.2,7.0,24.1,32.3,1.7,112
2014-07-27 19:40:10,31.0,7.8,23.1,32.2,1.6,111
2014-07-27 19:45:10,30.8,8.5,22.3,32.2,1.7,112
2014-07-27 19:50:10,30.7,8.3,22.4,32.1,2.3,111
2014-07-27 19:55:10,30.6,8.5,22.1,32.1,2.3,111
2014-07-27 20:00:10,30.5,8.4,22.1,32.1,2.3,112
2014-07-27 20:05:10,30.4,7.8,22.6,32.1,2.3,111
2014-07-27 20:10:10,30.2,7.8,22.5,32.0,2.3,112
2014-07-27 20:15:10,30.1,7.6,22.6,32.0,2.3,112
2014-07-27 20:20:10,29.9,7.4,22.5,31.9,2.3,111
2014-07-27 20:25:10,29.7,7.6,22.1,31.8,2.3,112
2014-07-27 20:30:10,29.8,7.5,22.3,31.7,2.3,111
2014-07-27 20:35:10,29.4,7.5,21.9,31.6,2.3,112
2014-07-27 20:40:10,29.2,7.9,21.3,31.4,2.3,111
2014-07-27 20:45:10,29.3,7.7,21.6,31.2,2.3,112
2014-07-27 20:50:10,29.3,7.2,22.1,30.9,2.3,111
2014-07-27 20:55:10,29.2,6.7,22.5,30.0,2.3,112
2014-07-27 21:00:10,29.4,7.0,22.3,28.9,2.3,111
2014-07-27 21:05:10,29.0,7.3,21.7,27.6,2.3,112
2014-07-27 21:10:10,28.8,7.2,21.6,25.7,2.3,112
2014-07-27 21:15:10,28.6,7.0,21.6,23.1,2.3,111
2014-07-27 21:20:10,28.5,7.0,21.5,19.5,2.3,112
2014-07-27 21:25:10,28.4,7.2,21.2,14.9,2.3,111
2014-07-27 21:30:10,28.4,6.2,22.2,10.6,2.3,112
2014-07-27 21:35:10,28.3,5.5,22.7,6.9,2.3,112
2014-07-27 21:40:10,28.2,5.7,22.5,4.2,2.3,111
2014-07-27 21:45:10,28.2,5.5,22.7,2.5,2.3,112
2014-07-27 21:50:10,28.1,5.2,22.9,1.5,2.3,112
2014-07-27 21:55:10,28.0,4.8,23.2,0.8,2.3,112
2014-07-27 22:00:10,27.8,3.9,23.9,0.5,2.3,111
2014-07-27 22:05:10,27.8,3.2,24.6,0.3,2.3,112
2014-07-27 22:10:10,27.6,2.7,24.9,0.2,2.3,111
2014-07-27 22:15:10,27.5,3.0,24.5,0.1,2.3,111
2014-07-27 22:20:10,27.4,3.7,23.7,0.1,2.3,111
2014-07-27 22:25:10,27.5,4.3,23.2,0.0,2.3,112
2014-07-27 22:30:10,27.5,4.8,22.6,0.0,2.3,112
2014-07-27 22:35:10,27.5,5.0,22.5,0.0,2.3,111
2014-07-27 22:40:10,27.5,5.5,22.0,0.0,2.3,112
2014-07-27 22:45:10,27.4,5.8,21.6,0.0,2.3,112
2014-07-27 22:50:10,27.3,6.3,21.0,0.0,2.3,111
2014-07-27 22:55:10,27.2,6.0,21.3,0.0,2.3,111
2014-07-27 23:00:10,27.3,5.2,22.0,0.0,2.3,112
2014-07-27 23:05:10,27.2,4.9,22.4,0.0,2.3,112
2014-07-27 23:10:10,27.2,4.4,22.8,0.0,2.3,112
2014-07-27 23:15:10,27.2,4.5,22.7,0.0,2.3,112
2014-07-27 23:20:10,27.2,4.6,22.6,0.0,2.3,111
2014-07-27 23:25:10,27.2,5.0,22.2,0.0,2.3,112
2014-07-27 23:30:10,27.1,5.1,22.0,0.0,2.3,112
2014-07-27 23:35:10,27.0,5.1,21.9,0.0,2.3,111
2014-07-27 23:40:10,27.0,4.9,22.1,0.0,2.3,112
2014-07-27 23:45:10,26.9,4.8,22.1,0.0,2.3,111
2014-07-27 23:50:10,26.9,4.7,22.3,0.0,2.3,111
2014-07-27 23:55:10,26.9,4.5,22.4,0.0,2.3,112
